[[{"header":{"parameterUnit":"m.s-1","parameterCategory":1,"la1":30.2991,"la2":30.254,"lo1":-89.0895,"lo2":-89.0444,"dy":0.0017,"dx":0.0017,"nx":28,"ny":28,"refTime":"2025-04-25T21:00:00:Z","depth":0,"parameterNumber":2,"parameterNumberName":"U-component_of_WINDS"},"data":[0,0,0,0,0,0,0,0,0,0,0,0,0,0,0,0,0,0,0,0,0,0,0,0,0,0,0,0,0,0,0,0,0,0,0,0,0,0,0,0,0,0,0,0,0,0,0,0,0,0,0,0,0,0,0,0,0,0,0.7111,0.7111,0,0.7195,0.7196,0.7197,0.7225,0.7224,0.7224,0.7224,0.7309,0.7311,0.7314,0,0,0,0,0,0,0,0,0,0,0,0,0,0.6971,0.6974,0.711,0.7112,0.7113,0.7195,0.7196,0.7197,0.7225,0.7224,0.7224,0.7224,0.7308,0.7311,0.7314,0,0,0,0,0,0,0,0,0,0,0,0,0,0.7041,0.6974,0.711,0.7136,0.714,0.7194,0.7196,0.7197,0.7225,0.7224,0.7224,0.7223,0.7307,0.7311,0.7314,0.7349,0,0,0.7326,0.7328,0,0,0,0,0,0,0,0,0.7037,0.7046,0.7132,0.7135,0.7138,0.7199,0.7178,0.7248,0.7225,0.7193,0.7224,0.7223,0.7272,0.7279,0.7296,0.7353,0.7357,0.7327,0.7329,0.7331,0.7332,0,0,0,0,0,0,0,0.7032,0.7043,0.7144,0.7133,0.7137,0.7143,0.7152,0.7191,0.7234,0.7195,0.7198,0.7207,0.7274,0.7292,0.7298,0.7358,0.7327,0.733,0.7332,0.7334,0.7445,0.7446,0,0,0,0,0,0,0.7023,0.7039,0.7141,0.7146,0.7086,0.7146,0.7157,0.718,0.7234,0.7242,0.7208,0.7208,0.7286,0.7294,0.7301,0.7344,0.7331,0.7334,0.7337,0.7445,0.7446,0.7446,0,0,0,0,0,0,0.702,0.7032,0.7138,0.7093,0.7107,0.7149,0.7175,0.7182,0.72,0.7243,0.7251,0.7218,0.7286,0.7296,0.7337,0.7348,0.7336,0.734,0.7444,0.7445,0.7446,0.7431,0,0,0,0,0,0,0.7016,0.7031,0.7045,0.7093,0.7109,0.7172,0.7176,0.7184,0.7207,0.7208,0.7255,0.7263,0.7286,0.7331,0.734,0.7353,0.7343,0.7443,0.7445,0.7446,0.7431,0.7431,0.7432,0,0,0,0,0,0.7011,0.7038,0.7046,0.7058,0.7128,0.7173,0.7182,0.7209,0.7208,0.7222,0.7249,0.7261,0.7345,0.7335,0.7346,0.736,0.7443,0.7444,0.7446,0.743,0.7431,0.7432,0,0,0,0,0,0,0.699,0.7044,0.7054,0.7097,0.713,0.7178,0.7196,0.7209,0.7243,0.7243,0.7274,0.7285,0.7323,0.7345,0.7333,0.7395,0.7394,0.7398,0.7379,0.738,0.7381,0.7374,0.7346,0,0,0,0,0,0.699,0.7022,0.7068,0.7102,0.7118,0.7154,0.7175,0.7192,0.7228,0.7242,0.7272,0.7306,0.7339,0.7361,0.7395,0.7434,0.7444,0.7449,0.7449,0.745,0.7452,0.7474,0.7476,0.7451,0.7451,0.7451,0,0,0.6991,0.7025,0.7044,0.7098,0.7126,0.7158,0.7166,0.72,0.7223,0.7247,0.7287,0.731,0.735,0.7389,0.7409,0.7409,0.7462,0.7451,0.7451,0.7454,0.7475,0.7478,0.748,0.7452,0.7452,0.7452,0,0,0.7009,0.7038,0.7069,0.7096,0.7138,0.7162,0.7169,0.7214,0.7231,0.7272,0.7289,0.7318,0.7376,0.7402,0.7423,0.745,0.7462,0.746,0.7463,0.7483,0.7485,0.7487,0.7496,0.7498,0.7462,0.7462,0.7462,0,0.7005,0.7055,0.7083,0.7116,0.7139,0.7161,0.7192,0.7217,0.7267,0.7282,0.7282,0.7354,0.7382,0.7428,0.7434,0.7451,0.7459,0.7455,0.7483,0.7485,0.7487,0.7495,0.7499,0.7462,0.7462,0.7462,0.7462,0,0.7047,0.7081,0.71,0.7148,0.7174,0.7205,0.7237,0.7259,0.7274,0.7297,0.7338,0.7372,0.7412,0.7424,0.744,0.7472,0.7471,0.7477,0.7477,0.7488,0.7497,0.75,0.7461,0.7461,0.7461,0.7462,0,0,0.7054,0.7117,0.7124,0.7145,0.7192,0.7219,0.725,0.729,0.7308,0.7341,0.7368,0.7415,0.742,0.7444,0.7462,0.748,0.7498,0.7484,0.7485,0.7484,0.7534,0.753,0.7533,0.7506,0.7506,0.7507,0.7531,0,0.7078,0.7137,0.7162,0.7209,0.724,0.7261,0.7288,0.732,0.7342,0.7371,0.7395,0.7428,0.7432,0.7447,0.7465,0.7492,0.7508,0.749,0.753,0.7531,0.752,0.7538,0.7533,0.7554,0.7534,0.7535,0.7535,0,0.7114,0.7147,0.7197,0.7239,0.7253,0.7277,0.7315,0.7343,0.7378,0.7393,0.7418,0.7436,0.7469,0.7466,0.7511,0.7499,0.7516,0.7531,0.7533,0.7537,0.7534,0.7542,0.7561,0.7564,0.7541,0.7541,0.754,0,0.7113,0.7171,0.7208,0.7226,0.7276,0.7292,0.7314,0.7349,0.737,0.7403,0.7417,0.7453,0.7472,0.7499,0.7525,0.7521,0.7567,0.7567,0.758,0.7579,0.7589,0.7588,0.761,0.76,0.76,0.76,0.76,0,0.7137,0.7166,0.7208,0.7231,0.7264,0.7292,0.7324,0.7347,0.7377,0.7404,0.7424,0.7448,0.7481,0.7509,0.753,0.7564,0.7572,0.7585,0.759,0.7583,0.7581,0.7595,0.7594,0.7601,0.7601,0.7601,0.7601,0,0.7142,0.7172,0.7213,0.7257,0.7269,0.7291,0.7328,0.735,0.7373,0.7406,0.7415,0.7451,0.7485,0.7514,0.7558,0.7572,0.7607,0.7613,0.7595,0.7598,0.7608,0.7607,0.764,0.7646,0.7632,0.7632,0.7632,0,0.7155,0.7178,0.7224,0.7244,0.7265,0.7296,0.7318,0.7347,0.7369,0.741,0.7427,0.7462,0.7492,0.7546,0.7575,0.7609,0.7616,0.7625,0.7621,0.7613,0.7615,0.7613,0.7615,0.7625,0.7625,0.7625,0.7625,0,0.7175,0.7188,0.7219,0.7255,0.7281,0.7311,0.7341,0.7356,0.739,0.7413,0.7448,0.7471,0.7517,0.7551,0.7588,0.761,0.7623,0.7626,0.7631,0.7624,0.7613,0.7618,0.7595,0.7626,0.7626,0.7626,0.7626,0.7626,0.7184,0.7205,0.7241,0.7274,0.73,0.7327,0.735,0.7375,0.7405,0.7445,0.746,0.7495,0.7529,0.758,0.7601,0.7629,0.763,0.7637,0.7639,0.764,0.7639,0.7608,0.7635,0.7635,0.7635,0.7636,0.7636,0,0.7204,0.7228,0.7259,0.73,0.7326,0.7337,0.737,0.7391,0.7423,0.7453,0.7482,0.7521,0.7555,0.7586,0.7621,0.7637,0.7644,0.7645,0.7644,0.7649,0.7635,0.7628,0.7639,0.7639,0.7639,0.7639,0.7639,0.7639,0.7218,0.7253,0.727,0.7318,0.7342,0.7377,0.7395,0.742,0.7444,0.7488,0.7516,0.7536,0.7567,0.7603,0.7634,0.7642,0.7654,0.7654,0.7663,0.765,0.765,0.7649,0.7642,0.7656,0.7656,0.7674,0.7674,0.7674]},{"header":{"parameterUnit":"m.s-1","parameterCategory":1,"la1":30.2991,"la2":30.254,"lo1":-89.0895,"lo2":-89.0444,"dy":0.0017,"dx":0.0017,"nx":28,"ny":28,"refTime":"2025-04-25T21:00:00:Z","depth":0,"parameterNumber":3,"parameterNumberName":"V-component_of_WINDS"},"data":[0,0,0,0,0,0,0,0,0,0,0,0,0,0,0,0,0,0,0,0,0,0,0,0,0,0,0,0,0,0,0,0,0,0,0,0,0,0,0,0,0,0,0,0,0,0,0,0,0,0,0,0,0,0,0,0,0,0,3.3298,3.3298,0,3.3274,3.3274,3.3274,3.3207,3.3206,3.3205,3.3203,3.318,3.3181,3.3182,0,0,0,0,0,0,0,0,0,0,0,0,0,3.3288,3.3288,3.3298,3.3298,3.3298,3.3274,3.3274,3.3274,3.3208,3.3206,3.3204,3.3202,3.318,3.3181,3.3182,0,0,0,0,0,0,0,0,0,0,0,0,0,3.3281,3.3289,3.3298,3.3262,3.3258,3.3274,3.3274,3.3274,3.3208,3.3206,3.3204,3.3202,3.318,3.3181,3.3182,3.3232,0,0,3.3185,3.3186,0,0,0,0,0,0,0,0,3.3282,3.3282,3.3267,3.3264,3.326,3.3242,3.3262,3.326,3.3209,3.3227,3.3203,3.3201,3.3203,3.3202,3.3202,3.3231,3.323,3.3186,3.3186,3.3187,3.3187,0,0,0,0,0,0,0,3.3282,3.3282,3.3289,3.3267,3.3263,3.3247,3.3244,3.3261,3.3227,3.3225,3.322,3.3218,3.32,3.3201,3.3201,3.323,3.3185,3.3186,3.3187,3.3188,3.3298,3.33,0,0,0,0,0,0,3.3288,3.3283,3.3289,3.3288,3.3266,3.3249,3.3245,3.325,3.3227,3.3221,3.322,3.3215,3.32,3.32,3.32,3.3256,3.3187,3.3188,3.3188,3.3296,3.3299,3.3301,0,0,0,0,0,0,3.3288,3.3289,3.329,3.3284,3.3283,3.3251,3.3257,3.3251,3.3251,3.3223,3.3217,3.3227,3.3199,3.3198,3.3224,3.3255,3.3188,3.3189,3.3293,3.3297,3.33,3.3371,0,0,0,0,0,0,3.3288,3.3289,3.3308,3.3285,3.3284,3.3315,3.3259,3.3252,3.3253,3.3247,3.3228,3.3223,3.3197,3.3223,3.3226,3.3255,3.319,3.329,3.3295,3.3299,3.3365,3.3376,3.3385,0,0,0,0,0,3.3288,3.3329,3.3309,3.331,3.3306,3.3317,3.3316,3.3285,3.3256,3.3274,3.3256,3.3224,3.3251,3.3226,3.3228,3.3259,3.3288,3.3294,3.3299,3.3361,3.3374,3.3385,0,0,0,0,0,0,3.3357,3.3325,3.3303,3.3338,3.3331,3.3306,3.3328,3.33,3.3301,3.3295,3.3256,3.3253,3.3284,3.3274,3.3247,3.3306,3.3264,3.327,3.3311,3.3323,3.3333,3.3334,3.3191,0,0,0,0,0,3.3376,3.3387,3.3359,3.3393,3.339,3.336,3.3364,3.334,3.3331,3.3328,3.3311,3.3305,3.3311,3.3317,3.3322,3.3364,3.3359,3.3386,3.3396,3.3404,3.3409,3.343,3.3442,3.3318,3.3318,3.3318,0,0,3.3416,3.34,3.341,3.3406,3.3398,3.341,3.3358,3.3373,3.3382,3.333,3.3353,3.3342,3.3331,3.3365,3.3379,3.3358,3.3442,3.341,3.3417,3.3418,3.3437,3.3449,3.3459,3.3321,3.3321,3.332,0,0,3.3495,3.3484,3.3511,3.3503,3.3491,3.347,3.3477,3.3456,3.3446,3.3469,3.343,3.344,3.3453,3.3447,3.3446,3.3523,3.3493,3.3526,3.3577,3.3598,3.3608,3.3616,3.3643,3.3653,3.3531,3.3531,3.3531,0,3.3546,3.3563,3.3529,3.3546,3.3546,3.3499,3.3526,3.352,3.3511,3.3512,3.3488,3.3503,3.3492,3.3524,3.3543,3.3544,3.355,3.3527,3.3609,3.3617,3.3624,3.365,3.366,3.3535,3.3535,3.3534,3.3534,0,3.3627,3.3639,3.3662,3.3653,3.3655,3.3678,3.3647,3.3654,3.363,3.3613,3.3636,3.3622,3.3623,3.3629,3.3607,3.3658,3.3645,3.3616,3.3573,3.3641,3.3664,3.3673,3.3541,3.354,3.3538,3.3537,0,0,3.3748,3.3719,3.3729,3.3724,3.3706,3.3715,3.3736,3.3736,3.3743,3.3738,3.3754,3.3766,3.3738,3.3737,3.3714,3.3732,3.3793,3.37,3.3699,3.3718,3.3848,3.387,3.3882,3.3774,3.3775,3.3777,3.3849,0,3.3823,3.3855,3.3824,3.3863,3.3874,3.3829,3.3847,3.3839,3.3823,3.383,3.3813,3.3821,3.3785,3.3784,3.38,3.3782,3.3819,3.3777,3.3788,3.3789,3.3791,3.3894,3.3917,3.3986,3.3858,3.386,3.3861,0,3.3913,3.3912,3.3951,3.3931,3.3934,3.3951,3.3948,3.3956,3.3946,3.3933,3.3931,3.3902,3.3921,3.388,3.3906,3.3878,3.3881,3.3873,3.3875,3.3874,3.3829,3.3896,3.4007,3.4018,3.3875,3.3873,3.3872,0,3.3997,3.4005,3.4029,3.4027,3.4004,3.4017,3.4008,3.3995,3.3997,3.3996,3.3997,3.3998,3.3998,3.4,3.3972,3.3945,3.4001,3.3958,3.3991,3.3992,3.4004,3.4004,3.4118,3.4008,3.4007,3.4007,3.4007,0,3.4083,3.4109,3.4067,3.4082,3.411,3.4075,3.4103,3.409,3.4079,3.4091,3.4053,3.4065,3.4028,3.4036,3.4015,3.4039,3.404,3.403,3.4024,3.4033,3.4034,3.4034,3.4028,3.401,3.4009,3.4009,3.4008,0,3.4182,3.4154,3.4178,3.4154,3.4149,3.417,3.415,3.4163,3.4145,3.416,3.4162,3.4133,3.4141,3.4114,3.4117,3.4103,3.4138,3.4125,3.4142,3.4137,3.4172,3.4169,3.4289,3.4303,3.4185,3.4186,3.4187,0,3.4238,3.4256,3.4234,3.4239,3.4232,3.4241,3.4243,3.4209,3.4212,3.4202,3.4217,3.4221,3.4223,3.4237,3.4217,3.422,3.4205,3.4247,3.4206,3.4214,3.4205,3.4204,3.4206,3.4256,3.4257,3.4259,3.426,0,3.434,3.4326,3.4329,3.4328,3.4331,3.4329,3.4324,3.4331,3.4294,3.43,3.4307,3.4309,3.4312,3.4317,3.4315,3.4307,3.4277,3.4273,3.4281,3.429,3.4299,3.4294,3.4165,3.427,3.4269,3.4268,3.4268,3.4267,3.4419,3.4433,3.442,3.4425,3.4418,3.4414,3.4425,3.4407,3.4413,3.4412,3.4392,3.4403,3.4392,3.4387,3.4381,3.4389,3.437,3.4381,3.4384,3.4387,3.4393,3.4298,3.4389,3.4389,3.4388,3.4388,3.4388,0,3.4519,3.4508,3.4513,3.4507,3.4511,3.4483,3.4476,3.4481,3.4491,3.4483,3.4486,3.4494,3.4499,3.4479,3.4481,3.4491,3.4478,3.4493,3.4491,3.449,3.441,3.4403,3.4504,3.4504,3.4503,3.4503,3.4503,3.4503,3.4571,3.4593,3.4578,3.4596,3.4585,3.4595,3.4594,3.459,3.4583,3.4594,3.4597,3.4584,3.4571,3.4572,3.4575,3.4569,3.4571,3.4591,3.4581,3.4507,3.4495,3.4485,3.4478,3.4592,3.4592,3.4659,3.4659,3.466]}]]